Location: Dealu Mare
(46.0500°N, 22.8167°E)
Time: 22:46:04
(UTC+00:00)

BREEZE-M DEB (TANK) - Pass Details

Date: 15 January 2026
Orbit: 290 x 14651 km, 49.5° (Epoch: 10 February)

Event Time Altitude Azimuth Distance (km) Brightness Sun altitude
Exits shadow 03:45:42 37° 283° (WNW) 2,379 4.9 -24.0°
Maximum altitude 03:49:11 61° 221° (SW) 1,250 3.8 -23.4°
Drops below altitude 10° 03:53:12 10° 140° (SE) 1,981 5.8 -22.7°
Sets 03:54:34 0° 135° (SE) 2,574 6.6 -22.4°
